Red Bluff, CA

5:12 AM PST on December 06, 2019 (GMT -0800)
Red Bluff Municipal

Weather History for KRBL - November, 2019

Change the Weather History Date:

Friday, November 15, 2019

  Actual Average Record
Temperature  
Mean Temperature 61 °F -  
Max Temperature 70 °F 60 °F 82 °F (2008)
Min Temperature 52 °F 43 °F 27 °F (1978)
Degree Days  
Heating Degree Days 4    
Growing Degree Days 11 (Base 50)    
Moisture  
Dew Point 47 °F    
Average Humidity 65    
Maximum Humidity 83    
Minimum Humidity 41    
Precipitation  
Precipitation 0.00 in - - ()
Sea Level Pressure  
Sea Level Pressure 30.18 in    
Wind  
Wind Speed 3 mph (NNW)    
Max Wind Speed 12 mph    
Max Gust Speed -    
Visibility 10 miles    
Events      
Averages and records for this station are not official NWS values.
T = Trace of Precipitation, MM = Missing Value Source: NWS Daily Summary

Daily Weather History Graph

Daily Weather History Graph

Search for Another Location

Airport or City:

Astronomy

Nov. 15, 2019 Rise Set
Actual Time 6:54 AM PST 4:52 PM PST
Civil Twilight 6:25 AM PST 5:21 PM PST
Nautical Twilight 5:52 AM PST 5:54 PM PST
Astronomical Twilight 5:20 AM PST 6:26 PM PST
Moon 7:32 PM PST (11/15) 9:56 AM PST (11/15)
Length of Visible Light 10h 56m
Length of Day
9h 58m
Waning Gibbous, 89% of the Moon is Illuminated
Nov 15
Waning Gibbous
Nov 19
Last Quarter
Nov 26
New
Dec 3
First Quarter
Dec 11
Full

Hourly Weather History & Observations

Time (PST) Temp. Dew Point Humidity Pressure Visibility Wind Dir Wind Speed Gust Speed Precip Events Conditions
12:54 AM 55.0 °F 48.9 °F 80% 30.15 in 10.0 mi Calm Calm - N/A   Mostly Cloudy
1:54 AM 55.9 °F 48.9 °F 77% 30.17 in 10.0 mi Calm Calm - N/A   Overcast
2:54 AM 55.0 °F 48.0 °F 77% 30.17 in 10.0 mi Calm Calm - N/A   Overcast
3:54 AM 55.0 °F 48.9 °F 80% 30.18 in 10.0 mi Calm Calm - N/A   Overcast
4:54 AM 55.9 °F 48.9 °F 77% 30.19 in 10.0 mi Calm Calm - N/A   Overcast
5:54 AM 54.0 °F 48.9 °F 83% 30.19 in 10.0 mi Calm Calm - N/A   Mostly Cloudy
6:54 AM 53.1 °F 48.0 °F 83% 30.22 in 10.0 mi Calm Calm - N/A   Mostly Cloudy
7:54 AM 53.1 °F 48.0 °F 83% 30.23 in 10.0 mi WNW 5.8 mph - N/A   Mostly Cloudy
8:54 AM 57.9 °F 48.9 °F 72% 30.24 in 10.0 mi NNE 4.6 mph - N/A   Overcast
9:03 AM 59.0 °F 48.9 °F 69% 30.24 in 10.0 mi North 4.6 mph - N/A   Overcast
9:23 AM 60.1 °F 48.9 °F 67% 30.25 in 10.0 mi NNW 4.6 mph - N/A   Scattered Clouds
9:54 AM 61.0 °F 48.9 °F 64% 30.25 in 10.0 mi NW 5.8 mph - N/A   Clear
10:54 AM 64.0 °F 48.9 °F 58% 30.23 in 10.0 mi North 5.8 mph - N/A   Clear
11:54 AM 66.0 °F 48.0 °F 52% 30.20 in 10.0 mi North 8.1 mph - N/A   Clear
12:54 PM 69.1 °F 48.0 °F 47% 30.18 in 10.0 mi NW 9.2 mph - N/A   Clear
1:54 PM 70.0 °F 46.9 °F 44% 30.16 in 10.0 mi North 11.5 mph - N/A   Clear
2:54 PM 71.1 °F 46.0 °F 41% 30.14 in 10.0 mi NNE 5.8 mph - N/A   Clear
3:54 PM 70.0 °F 46.0 °F 42% 30.13 in 10.0 mi NNE 6.9 mph - N/A   Clear
4:54 PM 66.0 °F 46.0 °F 48% 30.14 in 10.0 mi NNW 4.6 mph - N/A   Clear
5:54 PM 62.1 °F 46.0 °F 56% 30.14 in 10.0 mi NW 4.6 mph - N/A   Clear
6:54 PM 55.9 °F 45.0 °F 67% 30.13 in 10.0 mi NW 4.6 mph - N/A   Clear
7:54 PM 55.9 °F 45.0 °F 67% 30.15 in 10.0 mi NW 5.8 mph - N/A   Clear
8:54 PM 53.1 °F 45.0 °F 74% 30.15 in 10.0 mi North 6.9 mph - N/A   Clear
9:54 PM 55.9 °F 46.0 °F 69% 30.16 in 10.0 mi NNW 8.1 mph - N/A   Clear
10:54 PM 57.0 °F 46.0 °F 67% 30.15 in 10.0 mi NW 8.1 mph - N/A   Clear
11:54 PM 54.0 °F 46.0 °F 75% 30.15 in 10.0 mi North 6.9 mph - N/A   Clear